{"data":{"norad_id":48562,"intl_designator":"2021-041K","name":"STARLINK-2187","alt_names":[],"object_type":"PAYLOAD","status":"ACTIVE","operator":null,"country":"US","launch_date":"2021-05-15","launch_site_code":"AFETR","launch_vehicle":null,"mission":null,"orbit_class":"UNKNOWN","rcs_meters":null,"size_class":null,"mass_kg":null,"dimensions":null,"purposes":["comms"],"wikipedia_slug":null,"has_3d_model":false,"image_url":null,"decayed_at":null,"tle_current":{"epoch":"2026-09-20T00:00:02.999808Z","epoch_age_seconds":80542,"freshness":"FRESH","line1":"1 48562U 21041K   26263.00003472  .00159206  00000+0  57117-3 0  9994","line2":"2 48562  53.1459 265.3362 0007266  33.7775 142.3117 15.87784776  6032","mean_motion":15.87784776,"eccentricity":0.0007266,"inclination_deg":53.1459,"raan_deg":265.3362,"arg_perigee_deg":33.7775,"mean_anomaly_deg":142.3117,"bstar":0.00057117,"rev_number":603,"period_min":90.692392430396,"perigee_km":303.63644072964,"apogee_km":313.35345427575,"semimajor_km":6686.6319475027,"source":"CELESTRAK","updated_at":"2026-09-20T09:00:39.133499Z"}}}